Regional Weather Roundup
Issued by NWS Portland, ME

Current Version | Previous Version | Text Only | Print | Product List | Glossary Off
Versions: 1 2 3 4 5 6 7 8 9 10 11 12 13 14 15 16 17 18 19 20 21 22 23 24 25 26 27 28 29 30 31 32 33 34 35 36 37 38 39 40 41 42 43 44 45 46 47 48 49 50
438 ASUS41 KGYX 290105 RWRGYX WEATHER ROUNDUP FOR MAINE AND NEW HAMPSHIRE NATIONAL WEATHER SERVICE GRAY ME 900 PM EDT FRI APR 28 2017 MEZ002-005-006-010-012-015-018-020-021-024-026-027-029-290200- MAINE CITY SKY/WX TMP DP RH WIND PRES REMARKS PORTLAND PTCLDY 51 47 86 NE3 29.95R SANFORD CLOUDY 64 49 57 SW9 29.96R BAR HARBOR FOG 48 48 100 S5 29.95 VSB 1/4 WISCASSET FOG 51 50 96 CALM 29.95R VSB 3/4 ROCKLAND FOG 50 50 100 CALM 29.95R VSB 1/4 FRYEBURG CLEAR 59 49 69 SW3 29.93R LEWISTONAUBURN CLEAR 58 55 90 S5 29.94R AUGUSTA CLEAR 59 54 83 VRB7 29.93R BANGOR CLOUDY 54 54 100 S12 29.93R GREENVILLE N/A 54 54 100 N3 29.91R MILLINOCKET FOG 53 53 100 CALM 29.91S VSB 1/4 HOULTON CLOUDY 57 57 100 S5 29.89R PRESQUE ISLE CLOUDY 58 56 93 S7 29.89S FRENCHVILLE FOG 54 52 93 SE8 29.86R VSB 1/2 CARIBOU CLOUDY 58 55 90 S8 29.87R $$ NHZ002-005-008-009-011-012-014-290200- NEW HAMPSHIRE CITY SKY/WX TMP DP RH WIND PRES REMARKS PORTSMOUTH MOCLDY 72 33 23 W7 29.95R ROCHESTER CLEAR 72 33 24 CALM 29.95R NASHUA PTCLDY 66 47 50 CALM 29.98R MANCHESTER MOCLDY 74 30 19 CALM 29.96R CONCORD CLEAR 73 30 20 W7 29.97R LACONIA CLEAR 69 38 32 SW6 29.97R PLYMOUTH FAIR 71 36 27 SW6 29.95S BERLIN CLEAR 67 35 30 VRB3 29.94R WHITEFIELD CLEAR 58 43 57 SW3 29.95R JAFFREY CLOUDY 59 50 72 S5 30.02R KEENE CLOUDY 62 48 60 S3 30.00R LEBANON CLEAR 62 41 46 S9 29.97R MT WASHINGTON PTCLDY 45 37 76 W44 N/A $$ VTZ005-007-008-290200- VERMONT CITY SKY/WX TMP DP RH WIND PRES REMARKS ST JOHNSBURY N/A 66 41 40 MISG 29.93R MONTPELIER CLEAR 69 25 19 SW10G21 30.01R BURLINGTON CLOUDY 68 33 27 S6 29.96R $$ MAZ007-012-024-CTZ003-RIZ002-NYZ038-NYZ072-290200- SOUTHERN NEW ENGLAND AND NY CITY SKY/WX TMP DP RH WIND PRES REMARKS BOSTON PTCLDY 72 60 66 SW8 29.97R WORCESTER CLEAR 68 53 58 SW7 30.02R NANTUCKET FOG 49 48 97 SW9 30.03R VSB 1/4 PROVIDENCE MOCLDY 67 59 75 S8 30.01R HARTFORD PTCLDY 74 56 53 S13 29.99R ALBANY MOCLDY 67 48 50 CALM 29.99R NEW YORK CITY MOCLDY 77 50 38 S6 30.01R $$ ANZ081-ANZ082-ANZ150-NHZ014-MEZ023>029-290200- COASTAL MARINE OBSERVATIONS STATION/POSITION TIME TEMP WIND PRES WAVE AIR SEA DIR/SP/G HT/PER (UTC) (F) (DEG/KT/KT) (MB) (FT/S) MOUNT DESERT ROC 0000 44 1013.9R MATINICUS ROCK 0000 46 220/ 10/ 11 1013.2R ISLE OF SHOALS 0000 73 250/ 11/ 12 1013.0R JEFFREYS LEDGE 0036 45 N/A 4/ 8 CASHES LEDGE BUO 2350 46 44 1013.7 5/ 9 GEORGES BANK BUO 2350 47 43 1017.8 6/ 8 $$ .............KEY.............. WCI - WIND CHILL TC - TEMPERATURE IN CELSIUS VSB - VISIBILITY IN MILES HX - HEAT INDEX FAIR- INDICATES FEW OR NO CLOUDS BELOW 12,000 FT, WITH NO SIGNIFICANT WEATHER AND/OR OBSTRUCTIONS TO VISIBILITY.

USA.gov is the U.S. government's official web portal to all federal, state and local government web resources and services.